PBO Station Position Time Series. Reference Frame : NAM14
Format Version,1.1.1
4-character ID,P082
Station name,TuleValleyUT2006
Begin Date, 2006-05-10
End Date, 2023-06-26
Release Date, 2023-06-27
Reference position, 39.2689347987 North Latitude, -113.5052086552 East Longitude, 1380.99050 meters elevation,
Date, North (mm), East (mm), Vertical (mm), North Std. Deviation (mm), East Std. Deviation (mm),              Vertical Std. Deviation (mm), Quality,
2006-05-10,0.00, 0.00, 0.00, 2.04, 1.61, 7.24, repro,
2006-05-11,0.36, 0.62, 0.45, 2.04, 1.61, 7.28, repro,
2006-05-12,0.16, 1.45, 5.47, 2.03, 1.59, 7.18, repro,
2006-05-13,0.37, 0.03, 5.47, 2.02, 1.60, 7.17, repro,
2006-05-14,1.53, 1.70, 0.86, 2.02, 1.60, 7.17, repro,
2006-05-15,0.84, 0.11, -7.27, 2.03, 1.61, 7.20, repro,
2006-05-16,0.17, 0.79, -1.10, 2.09, 1.64, 7.40, repro,
2006-05-17,1.16, 0.23, 2.83, 2.08, 1.64, 7.43, repro,
2006-05-18,0.92, 0.25, 9.17, 2.04, 1.60, 7.22, repro,
2006-05-19,0.11, 0.71, 10.75, 2.17, 1.64, 7.57, repro,
2006-05-20,1.24, -0.24, 5.60, 2.12, 1.61, 7.41, repro,
2006-05-21,-0.99, 0.52, 8.84, 2.20, 1.66, 7.70, repro,
2006-05-22,0.97, -0.31, 9.88, 2.15, 1.66, 7.56, repro,
2006-05-23,1.37, 0.08, 2.87, 2.10, 1.61, 7.37, repro,
2006-05-24,-0.15, 0.75, 5.32, 2.11, 1.61, 7.36, repro,
2006-05-25,0.89, 0.35, 6.19, 2.25, 1.67, 7.84, repro,
2006-05-26,1.70, 1.47, 8.02, 2.21, 1.65, 7.75, repro,
2006-05-27,-1.26, 0.16, 17.42, 2.13, 1.62, 7.40, repro,
2006-05-28,0.54, -0.45, 6.84, 2.10, 1.62, 7.33, repro,
2006-05-29,0.77, 0.40, 1.70, 2.11, 1.62, 7.36, repro,
2006-05-30,0.82, 0.69, 1.03, 2.17, 1.64, 7.55, repro,
2006-05-31,0.86, 0.70, -0.94, 2.21, 1.68, 7.61, repro,
2006-06-01,0.79, 1.19, 0.12, 2.18, 1.65, 7.56, repro,
2006-06-02,1.24, 0.76, 3.93, 2.22, 1.68, 7.74, repro,
2006-06-03,-0.71, 1.10, 1.30, 2.17, 1.65, 7.50, repro,
2006-06-04,-0.85, 0.87, 13.14, 2.17, 1.66, 7.56, repro,
2006-06-05,1.39, 1.75, 6.03, 2.16, 1.64, 7.48, repro,
2006-06-06,0.87, 2.67, 7.90, 2.17, 1.65, 7.49, repro,
2006-06-07,1.05, 0.90, 7.19, 2.22, 1.70, 7.67, repro,
2006-06-08,1.29, 0.75, -2.31, 2.13, 1.62, 7.38, repro,
2006-06-09,-0.83, 3.20, -2.80, 2.13, 1.63, 7.51, repro,
2006-06-10,0.65, 1.76, 6.15, 2.13, 1.63, 7.44, repro,
2006-06-11,2.21, 2.70, 10.76, 2.17, 1.64, 7.48, repro,
2006-06-12,0.78, 0.71, 6.36, 2.16, 1.65, 7.49, repro,
2006-06-13,0.15, -0.97, 10.46, 2.18, 1.65, 7.53, repro,
2006-06-14,0.39, -0.49, 7.87, 2.13, 1.62, 7.44, repro,
2006-06-15,0.47, 1.17, 12.24, 2.10, 1.62, 7.41, repro,
2006-06-16,1.84, 1.10, 8.82, 2.11, 1.61, 7.35, repro,
2006-06-17,0.54, 1.37, 9.72, 2.10, 1.61, 7.32, repro,
2006-06-18,0.74, 0.65, 12.99, 2.12, 1.66, 7.54, repro,
2006-06-19,-0.34, 1.01, 20.87, 2.15, 1.66, 7.63, repro,
2006-06-20,0.72, 1.44, 3.45, 2.14, 1.66, 7.59, repro,
2006-06-21,-1.08, 0.55, 6.36, 2.14, 1.66, 7.57, repro,
2006-06-22,1.01, 1.26, 10.62, 2.17, 1.66, 7.65, repro,
2006-06-23,-0.39, 1.30, 6.30, 2.13, 1.65, 7.54, repro,
2006-06-24,0.49, 0.93, 6.37, 2.13, 1.66, 7.60, repro,
2006-06-25,0.01, 1.24, -0.44, 2.19, 1.72, 7.83, repro,
2006-06-26,-0.59, 1.24, 6.29, 2.18, 1.71, 7.78, repro,
2006-06-27,-0.05, 0.98, 5.59, 2.20, 1.74, 7.81, repro,
2006-06-28,0.43, 1.06, 4.31, 2.21, 1.70, 7.86, repro,
2006-06-29,-0.53, 0.96, 7.78, 2.14, 1.68, 7.64, repro,
2006-06-30,-2.20, 2.27, -1.89, 2.13, 1.65, 7.63, repro,
2006-07-01,0.61, 1.92, 2.62, 2.14, 1.68, 7.70, repro,
2006-07-02,-0.28, 1.92, -6.66, 2.09, 1.62, 7.47, repro,
2006-07-03,-0.61, 1.77, 3.91, 2.12, 1.62, 7.54, repro,
2006-07-04,1.31, 0.99, 1.13, 2.12, 1.63, 7.58, repro,
2006-07-05,0.67, 0.54, 2.90, 2.09, 1.62, 7.45, repro,
2006-07-06,-0.11, 1.71, 5.41, 2.08, 1.62, 7.42, repro,
2006-07-07,0.11, 3.26, -7.74, 2.13, 1.68, 7.65, repro,
2006-07-08,-0.66, 3.53, 1.60, 2.11, 1.62, 7.51, repro,
2006-07-09,-0.29, 2.97, -3.00, 2.12, 1.61, 7.52, repro,
2006-07-10,0.43, 1.02, 7.51, 2.11, 1.62, 7.49, repro,
2006-07-11,0.64, 1.58, 0.46, 2.10, 1.63, 7.51, repro,
2006-07-12,0.80, 0.68, 5.23, 2.11, 1.62, 7.53, repro,
2006-07-13,-0.86, 2.40, 2.99, 2.11, 1.62, 7.51, repro,
2006-07-14,0.09, 1.56, 1.88, 2.12, 1.61, 7.58, repro,
2006-07-15,-1.67, 3.53, 11.08, 2.11, 1.61, 7.50, repro,
2006-07-16,-0.08, 1.56, 4.50, 2.11, 1.63, 7.56, repro,
2006-07-17,-0.71, -0.40, 10.30, 2.20, 1.73, 7.90, repro,
2006-07-18,0.17, 2.44, 13.89, 2.05, 1.61, 7.28, repro,
2006-07-19,1.20, 4.63, 7.92, 2.05, 1.61, 7.30, repro,
2006-07-20,0.01, 1.51, 6.31, 2.04, 1.61, 7.22, repro,
2006-07-21,-1.34, 2.19, -1.06, 2.04, 1.61, 7.24, repro,
2006-07-22,1.37, -0.18, 6.51, 2.03, 1.63, 7.26, repro,
2006-07-23,-1.62, 1.00, 7.78, 2.16, 1.68, 7.70, repro,
2006-07-24,-0.89, 1.85, 10.14, 2.05, 1.62, 7.31, repro,
2006-07-25,1.82, 2.08, 10.73, 2.03, 1.62, 7.29, repro,
2006-07-26,-1.72, 2.57, 14.60, 2.09, 1.68, 7.39, repro,
2006-07-27,0.30, -0.48, 7.67, 2.03, 1.60, 7.20, repro,
2006-07-28,-0.53, 1.90, 13.76, 2.03, 1.60, 7.18, repro,
2006-07-29,0.27, 2.37, 3.18, 2.07, 1.62, 7.30, repro,
2006-07-30,0.63, 1.47, 15.25, 2.02, 1.61, 7.19, repro,
2006-07-31,0.27, 2.00, 12.33, 2.12, 1.70, 7.71, repro,
2006-08-01,0.27, 3.48, 16.98, 2.04, 1.62, 7.27, repro,
2006-08-02,3.78, 0.27, 5.43, 2.09, 1.66, 7.53, repro,
2006-08-03,-0.93, 2.68, 2.59, 2.14, 1.71, 7.69, repro,
2006-08-04,0.38, 3.86, 5.43, 2.16, 1.68, 7.68, repro,
2006-08-05,-0.10, 1.39, 0.79, 2.10, 1.66, 7.55, repro,
2006-08-06,-0.09, 2.29, 4.03, 2.07, 1.65, 7.44, repro,
2006-08-07,1.50, 2.98, 3.69, 2.09, 1.65, 7.48, repro,
2006-08-08,1.39, 0.83, 5.34, 2.05, 1.62, 7.28, repro,
2006-08-09,-0.08, 1.83, 10.75, 2.07, 1.67, 7.32, repro,
2006-08-10,-0.33, 1.21, 5.11, 2.04, 1.62, 7.25, repro,
2006-08-11,0.58, 3.77, 11.62, 2.06, 1.64, 7.39, repro,
2006-08-12,-1.67, 0.45, 8.64, 2.09, 1.70, 7.45, repro,
2006-08-13,-0.19, 1.98, 8.78, 2.08, 1.66, 7.38, repro,
2006-08-14,0.40, 1.47, 9.30, 2.06, 1.62, 7.29, repro,
2006-08-15,1.21, 3.41, 13.72, 2.13, 1.65, 7.48, repro,
2006-08-16,0.80, 5.42, 11.23, 2.07, 1.63, 7.38, repro,
2006-08-17,0.51, 0.91, 10.31, 2.02, 1.61, 7.21, repro,
2006-08-18,0.79, 0.86, 6.24, 2.11, 1.72, 7.49, repro,
2006-08-19,0.18, 0.76, -1.56, 2.02, 1.60, 7.20, repro,
2006-08-20,-0.85, 2.47, 8.16, 2.02, 1.60, 7.17, repro,
2006-08-21,-0.14, 1.61, 0.55, 2.06, 1.63, 7.37, repro,
2006-08-22,0.59, 0.73, 5.86, 2.05, 1.64, 7.33, repro,
2006-08-23,0.27, 2.64, 22.92, 2.09, 1.69, 7.57, repro,
2006-08-24,1.70, 1.35, 14.37, 2.06, 1.64, 7.35, repro,
2006-08-25,-0.52, 2.42, 22.00, 2.09, 1.66, 7.51, repro,
2006-08-26,-0.64, 1.31, 16.12, 2.11, 1.70, 7.61, repro,
2006-08-27,0.53, 0.73, 7.44, 2.10, 1.71, 7.62, repro,
2006-08-28,1.08, 1.43, 3.30, 2.10, 1.70, 7.58, repro,
2006-08-29,0.44, 1.94, 11.35, 2.11, 1.71, 7.65, repro,
2006-08-30,-0.12, 1.95, 13.20, 2.11, 1.71, 7.69, repro,
2006-08-31,-0.08, 1.40, 10.65, 2.11, 1.69, 7.55, repro,
2006-09-01,0.58, 1.50, 6.12, 2.10, 1.71, 7.66, repro,
2006-09-02,1.40, 1.58, 4.26, 2.10, 1.71, 7.65, repro,
2006-09-03,0.09, 2.41, 4.45, 2.10, 1.71, 7.61, repro,
2006-09-04,0.47, 2.37, 2.17, 2.15, 1.75, 7.77, repro,
2006-09-05,0.73, 1.51, 5.47, 2.18, 1.75, 7.84, repro,
2006-09-06,0.22, 1.23, 2.80, 2.13, 1.76, 7.78, repro,
2006-09-07,0.26, 0.92, 12.21, 2.13, 1.76, 7.77, repro,
2006-09-08,0.06, 2.77, 4.83, 2.15, 1.77, 7.89, repro,
2006-09-09,-1.25, 2.08, 9.16, 2.09, 1.66, 7.40, repro,
2006-09-10,-0.83, 2.62, 8.91, 2.08, 1.68, 7.48, repro,
2006-09-11,1.05, 1.60, 4.49, 2.07, 1.66, 7.38, repro,
2006-09-12,1.90, 0.89, 5.77, 2.08, 1.66, 7.37, repro,
2006-09-13,1.35, 2.43, 10.58, 2.11, 1.68, 7.49, repro,
2006-09-14,0.95, 1.64, 15.56, 2.19, 1.73, 7.71, repro,
2006-09-15,-0.22, 2.26, 22.59, 2.20, 1.66, 7.66, repro,
2006-09-16,0.89, 1.22, 9.84, 2.04, 1.62, 7.24, repro,
2006-09-17,0.75, 0.84, 7.40, 2.04, 1.63, 7.24, repro,
2006-09-18,1.06, 2.14, 8.53, 2.06, 1.63, 7.28, repro,
2006-09-19,-0.23, 2.21, 11.65, 2.05, 1.61, 7.17, repro,
2006-09-20,0.44, 2.19, 13.69, 2.03, 1.61, 7.20, repro,
2006-09-21,-0.24, 1.88, 6.81, 2.09, 1.67, 7.43, repro,
2006-09-22,0.72, 0.61, 13.00, 2.13, 1.69, 7.51, repro,
2006-09-23,0.85, 1.08, 5.70, 2.10, 1.65, 7.38, repro,
2006-09-24,1.17, 1.50, 4.35, 2.15, 1.68, 7.51, repro,
2006-09-25,0.12, 1.71, 8.32, 2.15, 1.68, 7.68, repro,
2006-09-26,0.63, 0.89, 2.79, 2.14, 1.69, 7.50, repro,
2006-09-27,2.49, 1.36, 4.41, 2.13, 1.65, 7.40, repro,
2006-09-28,1.26, 0.87, 4.76, 2.16, 1.70, 7.60, repro,
2006-09-29,0.20, 0.77, 8.31, 2.15, 1.74, 7.65, repro,
2006-09-30,0.73, 1.30, 14.48, 2.10, 1.67, 7.46, repro,
2006-10-01,0.45, 1.47, 11.83, 2.10, 1.68, 7.44, repro,
2006-10-02,2.55, 2.20, 4.38, 2.16, 1.71, 7.54, repro,
2006-10-03,0.53, 2.45, 6.50, 2.15, 1.75, 7.61, repro,
2006-10-04,-0.30, 2.40, 6.72, 2.12, 1.69, 7.52, repro,
2006-10-05,2.57, 3.34, 3.32, 2.09, 1.65, 7.41, repro,
2006-10-06,0.76, 1.56, 2.92, 2.09, 1.66, 7.42, repro,
2006-10-07,0.45, 1.05, 3.04, 2.21, 1.80, 8.06, repro,
2006-10-08,0.88, 2.10, -1.30, 2.17, 1.71, 7.77, repro,
2006-10-09,1.61, 1.41, 3.91, 2.11, 1.68, 7.44, repro,
2006-10-10,0.09, 1.54, 2.76, 2.09, 1.67, 7.42, repro,
2006-10-11,0.73, 1.08, 6.70, 2.13, 1.74, 7.66, repro,
2006-10-12,-0.35, 0.87, 9.43, 2.06, 1.64, 7.31, repro,
2006-10-13,0.38, 0.81, 8.11, 2.03, 1.63, 7.25, repro,
2006-10-14,0.83, 1.17, 11.09, 2.06, 1.67, 7.38, repro,
2006-10-15,0.58, 1.68, 17.46, 2.13, 1.71, 7.58, repro,
2006-10-16,1.22, 0.80, 25.25, 2.02, 1.63, 7.20, repro,
2006-10-17,1.76, 0.59, 13.99, 2.06, 1.71, 7.54, repro,
2006-10-18,0.54, 1.04, 2.53, 2.03, 1.66, 7.28, repro,
2006-10-19,0.81, 1.74, 5.40, 2.26, 1.77, 7.98, repro,
2006-10-20,2.02, 0.28, 12.79, 2.37, 1.92, 8.86, repro,
2006-10-21,2.10, -0.35, 2.10, 2.17, 1.74, 7.77, repro,
2006-10-22,0.46, 0.97, -1.07, 2.05, 1.72, 7.46, repro,
2006-10-23,1.07, 1.08, 3.18, 2.20, 1.80, 8.02, repro,
2006-10-24,0.40, 1.72, 3.94, 2.30, 1.87, 8.33, repro,
2006-10-25,0.86, 2.57, 20.35, 2.27, 1.80, 7.99, repro,
2006-10-26,1.20, 1.18, 3.10, 2.11, 1.78, 7.67, repro,
2006-10-27,1.64, 1.49, 1.98, 2.04, 1.68, 7.43, repro,
2006-10-28,1.32, 0.47, 1.53, 2.14, 1.73, 7.72, repro,
2006-10-29,-0.08, 1.93, 5.32, 2.08, 1.73, 7.54, repro,
2006-10-30,1.43, 1.65, 9.36, 2.03, 1.64, 7.27, repro,
2006-10-31,0.63, 0.90, 7.51, 2.09, 1.72, 7.58, repro,
2006-11-01,2.01, 1.65, 3.08, 2.10, 1.78, 7.70, repro,
2006-11-02,0.35, 1.44, 2.84, 2.02, 1.68, 7.34, repro,
2006-11-03,-0.02, 1.44, 7.45, 2.13, 1.80, 7.80, repro,
2006-11-04,0.44, 1.42, 5.06, 2.12, 1.71, 7.52, repro,
2006-11-05,1.11, 2.23, 5.98, 2.23, 1.78, 8.14, repro,
2006-11-06,1.27, 1.02, 2.94, 2.01, 1.63, 7.25, repro,
2006-11-07,1.28, 1.50, 6.72, 2.16, 1.77, 7.76, repro,
2006-11-08,0.24, 0.58, 15.20, 2.12, 1.71, 7.53, repro,
2006-11-09,0.66, 0.70, 8.86, 2.18, 1.78, 7.76, repro,
2006-11-10,0.62, 1.66, 6.35, 2.09, 1.65, 7.41, repro,
2006-11-11,-0.25, 3.15, 8.14, 2.13, 1.74, 7.70, repro,
2006-11-12,1.46, 1.63, 5.96, 2.15, 1.76, 7.77, repro,
2006-11-13,1.39, 2.10, 11.37, 2.13, 1.72, 7.65, repro,
2006-11-14,1.23, -0.40, 9.64, 2.04, 1.64, 7.38, repro,
2006-11-15,0.44, 1.94, 4.22, 2.03, 1.62, 7.27, repro,
2006-11-16,1.53, 1.24, 10.99, 2.02, 1.62, 7.27, repro,
2006-11-17,1.48, 1.53, 9.52, 2.01, 1.62, 7.23, repro,
2006-11-18,0.87, 1.79, 1.40, 2.01, 1.61, 7.16, repro,
2006-11-19,0.72, 1.10, -5.34, 1.99, 1.62, 7.18, repro,
2006-11-20,0.64, 1.80, -0.01, 2.02, 1.62, 7.19, repro,
2006-11-21,-1.56, 2.68, 13.46, 2.02, 1.62, 7.22, repro,
2006-11-22,2.33, 3.39, 8.55, 2.02, 1.62, 7.24, repro,
2006-11-23,0.68, 1.19, 7.73, 2.04, 1.66, 7.34, repro,
2006-11-24,1.73, 1.15, -1.74, 2.09, 1.70, 7.57, repro,
2006-11-25,0.53, 1.23, 5.07, 2.03, 1.64, 7.23, repro,
2006-11-26,-0.61, 1.80, 3.47, 2.04, 1.64, 7.26, repro,
2006-11-27,1.10, 3.31, 10.89, 2.04, 1.63, 7.24, repro,
2006-11-28,0.28, 2.38, 13.55, 2.00, 1.62, 7.14, repro,
2006-11-29,0.14, 0.70, 3.78, 1.99, 1.62, 7.14, repro,
2006-11-30,1.51, 1.22, -4.76, 2.00, 1.63, 7.15, repro,
2006-12-01,0.56, 1.38, -2.61, 2.03, 1.64, 7.20, repro,
2006-12-02,1.47, 1.27, -2.30, 2.00, 1.63, 7.18, repro,
2006-12-03,0.37, 1.27, -3.64, 2.00, 1.63, 7.20, repro,
2006-12-04,1.12, 1.42, -7.78, 2.05, 1.64, 7.30, repro,
2006-12-05,0.19, 0.96, -2.53, 2.09, 1.75, 7.53, repro,
2006-12-06,2.16, 1.52, 0.69, 2.11, 1.77, 7.62, repro,
2006-12-07,-0.36, 1.46, -3.50, 2.02, 1.68, 7.28, repro,
2006-12-08,1.16, 1.64, 0.54, 2.03, 1.68, 7.30, repro,
2006-12-09,0.65, 1.30, 3.57, 2.14, 1.76, 7.58, repro,
2006-12-10,-0.74, 0.02, 8.25, 2.12, 1.69, 7.43, repro,
2006-12-11,1.00, 0.94, 2.81, 2.02, 1.64, 7.22, repro,
2006-12-12,1.14, 1.92, 3.45, 2.08, 1.69, 7.39, repro,
2006-12-13,0.98, 1.74, -0.27, 2.04, 1.69, 7.39, repro,
2006-12-14,0.47, -0.48, 10.31, 2.00, 1.64, 7.22, repro,
2006-12-15,1.49, 1.45, 3.65, 2.05, 1.69, 7.34, repro,
2006-12-16,2.95, 0.89, 10.15, 2.14, 1.77, 7.64, repro,
2006-12-17,1.22, 1.49, 2.68, 2.24, 1.90, 8.34, repro,
2006-12-18,1.66, 1.39, 2.33, 2.32, 1.88, 8.66, repro,
2006-12-19,2.53, 1.21, 3.17, 2.12, 1.77, 7.79, repro,
2006-12-20,1.25, 1.39, 0.42, 2.15, 1.76, 7.64, repro,
2006-12-21,1.22, 1.59, -4.18, 2.03, 1.74, 7.42, repro,
2006-12-22,0.22, 0.67, 2.94, 2.48, 2.11, 9.26, repro,
2006-12-23,1.95, 1.14, -4.15, 2.13, 1.77, 7.79, repro,
2006-12-24,1.52, 1.33, -6.48, 2.00, 1.64, 7.20, repro,
2006-12-25,1.59, 1.57, -7.87, 2.07, 1.74, 7.49, repro,
2006-12-26,0.49, 1.57, 0.55, 2.18, 1.75, 7.88, repro,
2006-12-27,1.65, 2.61, 11.21, 2.08, 1.73, 7.58, repro,
2006-12-28,0.78, 0.77, 7.06, 2.41, 2.07, 9.30, repro,
2006-12-29,2.71, 0.48, -1.37, 2.11, 1.79, 7.85, repro,
2006-12-30,2.44, 1.70, -1.02, 2.07, 1.74, 7.62, repro,
2006-12-31,2.15, 0.85, -1.65, 2.26, 1.85, 8.42, repro,
2007-01-01,1.86, 1.22, 3.71, 2.32, 1.92, 8.64, repro,
2007-01-02,2.00, 1.20, -2.14, 2.24, 1.87, 8.26, repro,
2007-01-03,0.64, 0.97, 12.26, 2.00, 1.68, 7.39, repro,
2007-01-04,3.19, 0.93, 7.34, 2.02, 1.72, 7.47, repro,
2007-01-05,2.40, 1.22, 9.13, 2.07, 1.76, 7.51, repro,
2007-01-06,1.69, 1.97, 0.54, 2.05, 1.75, 7.42, repro,
2007-01-07,1.31, 1.63, -3.54, 2.03, 1.66, 7.23, repro,
2007-01-08,1.81, 0.81, -4.11, 2.08, 1.70, 7.42, repro,
2007-01-09,1.09, 0.55, -4.96, 2.05, 1.67, 7.27, repro,
2007-01-10,0.73, 2.80, 2.16, 2.03, 1.66, 7.20, repro,
2007-01-11,2.19, 0.66, -1.16, 2.08, 1.67, 7.31, repro,
2007-01-12,2.02, 1.66, -0.86, 1.99, 1.60, 7.07, repro,
2007-01-13,1.86, 1.77, -1.77, 1.97, 1.59, 6.94, repro,
2007-01-14,2.01, 1.98, -5.41, 1.98, 1.62, 7.09, repro,
2007-01-15,1.61, 1.38, -10.60, 1.95, 1.60, 6.96, repro,
2007-01-16,1.29, 1.41, -11.02, 2.00, 1.61, 7.04, repro,
2007-01-17,1.17, 0.98, -6.60, 2.00, 1.65, 7.13, repro,
2007-01-18,1.79, 1.78, -9.06, 2.00, 1.64, 7.09, repro,
2007-01-19,1.83, 1.39, -7.00, 2.03, 1.63, 7.23, repro,
2007-01-20,1.49, 1.03, -2.07, 2.02, 1.64, 7.25, repro,
2007-01-21,1.77, 0.82, -0.23, 1.96, 1.60, 6.94, repro,
2007-01-22,0.86, 1.13, -4.01, 1.97, 1.60, 6.95, repro,
2007-01-23,1.49, 1.75, -5.78, 1.97, 1.61, 6.99, repro,
2007-01-24,1.93, 2.18, -6.66, 1.98, 1.60, 7.00, repro,
2007-01-25,2.66, 1.73, -11.32, 2.04, 1.64, 7.12, repro,
2007-01-26,1.03, 1.87, -3.67, 1.97, 1.60, 6.97, repro,
2007-01-27,1.69, 2.00, -2.28, 1.96, 1.59, 6.90, repro,
2007-01-28,1.29, 1.78, -1.58, 1.96, 1.60, 6.92, repro,
2007-01-29,1.17, 1.62, -6.26, 1.97, 1.60, 6.95, repro,
2007-01-30,1.20, 1.97, -0.75, 1.97, 1.59, 6.92, repro,
2007-01-31,1.04, 0.64, -0.51, 1.97, 1.59, 6.96, repro,
2007-02-01,1.08, 0.93, 0.56, 1.98, 1.64, 7.12, repro,
2007-02-02,1.02, 1.83, 1.98, 2.02, 1.61, 7.11, repro,
2007-02-03,1.49, 1.65, -4.04, 2.02, 1.60, 7.11, repro,
2007-02-04,1.21, 1.68, -3.24, 1.95, 1.58, 6.86, repro,
2007-02-05,1.09, 2.11, -7.48, 1.97, 1.59, 6.92, repro,
2007-02-06,1.12, 2.15, -4.64, 2.02, 1.61, 7.02, repro,
2007-02-07,1.73, 2.37, -6.14, 1.98, 1.61, 7.02, repro,
2007-02-08,1.20, 2.86, -2.48, 2.06, 1.67, 7.25, repro,
2007-02-09,1.37, 2.92, 0.61, 2.00, 1.65, 7.09, repro,
2007-02-10,0.16, 1.86, -3.29, 1.97, 1.60, 6.95, repro,
2007-02-11,-0.23, 2.33, 1.09, 1.97, 1.60, 6.94, repro,
2007-02-12,1.33, 2.26, -3.42, 1.99, 1.60, 7.03, repro,
2007-02-13,0.84, 2.26, -6.44, 1.98, 1.60, 6.99, repro,
2007-02-14,1.14, 2.53, -1.97, 1.98, 1.59, 6.98, repro,
2007-02-15,1.18, 2.66, 0.36, 1.95, 1.59, 6.91, repro,
2007-02-16,1.40, 1.53, 2.43, 1.99, 1.59, 6.99, repro,
2007-02-17,0.25, 2.04, -1.67, 2.01, 1.64, 7.05, repro,
2007-02-18,1.16, 2.66, -0.50, 1.99, 1.61, 7.03, repro,
2007-02-19,1.53, 2.34, 20.33, 1.97, 1.58, 6.91, repro,
2007-02-20,0.71, 1.53, 6.40, 1.98, 1.59, 6.97, repro,
2007-02-21,0.31, 1.08, 10.30, 1.98, 1.59, 6.99, repro,
2007-02-22,1.27, 3.06, 6.33, 2.00, 1.59, 7.03, repro,
2007-02-23,-0.39, 0.78, 6.57, 2.13, 1.71, 7.53, repro,
2007-02-24,1.83, 1.29, 3.03, 2.00, 1.59, 7.00, repro,
2007-02-25,1.79, 2.19, 9.04, 1.97, 1.58, 6.95, repro,
2007-02-26,2.05, 2.37, 10.68, 1.98, 1.59, 6.98, repro,
2007-02-27,1.34, 1.09, 10.08, 1.98, 1.59, 7.00, repro,
2007-02-28,0.86, 0.90, 9.51, 2.00, 1.59, 7.06, repro,
2007-03-01,0.01, 2.42, 8.48, 2.05, 1.66, 7.26, repro,
2007-03-02,2.02, 1.57, 2.91, 2.05, 1.65, 7.24, repro,
2007-03-03,2.28, 2.31, -0.58, 2.01, 1.63, 7.14, repro,
2007-03-04,1.57, 2.02, -6.94, 2.02, 1.63, 7.19, repro,
2007-03-05,1.37, 2.32, -1.54, 2.02, 1.63, 7.21, repro,
2007-03-06,1.39, 1.84, -3.78, 2.03, 1.62, 7.16, repro,
2007-03-07,1.15, 1.56, -1.45, 2.03, 1.62, 7.16, repro,
2007-03-08,-0.04, 1.56, 1.16, 2.02, 1.61, 7.10, repro,
2007-03-09,1.61, 1.81, 4.35, 2.03, 1.63, 7.19, repro,
2007-03-10,0.77, 2.71, 2.00, 2.06, 1.67, 7.39, repro,
2007-03-11,1.08, 1.60, -3.70, 2.03, 1.62, 7.17, repro,
2007-03-12,0.32, 1.13, -3.12, 2.07, 1.66, 7.39, repro,
2007-03-13,1.13, 1.70, 2.57, 2.01, 1.62, 7.17, repro,
2007-03-14,1.32, 1.00, 7.76, 2.00, 1.59, 7.03, repro,
2007-03-15,1.63, 1.22, 0.36, 2.00, 1.61, 7.08, repro,
2007-03-16,1.30, 1.44, -1.84, 2.01, 1.62, 7.10, repro,
2007-03-17,0.52, 1.72, 2.62, 1.98, 1.59, 6.99, repro,
2007-03-18,-0.50, 1.06, 7.10, 2.00, 1.59, 7.04, repro,
2007-03-19,-0.07, 1.60, 6.87, 1.99, 1.57, 6.99, repro,
2007-03-20,0.90, 2.69, 13.10, 2.08, 1.61, 7.16, repro,
2007-03-21,1.28, 3.87, 10.43, 2.10, 1.64, 7.30, repro,
2007-03-22,0.73, 0.82, 3.39, 2.00, 1.61, 7.14, repro,
2007-03-23,0.17, 1.24, 0.11, 2.02, 1.62, 7.24, repro,
2007-03-24,-0.92, 1.40, 5.40, 2.03, 1.62, 7.21, repro,
2007-03-25,-0.19, 1.60, 8.25, 1.99, 1.57, 6.98, repro,
2007-03-26,0.98, 1.90, 12.10, 1.99, 1.56, 6.94, repro,
2007-03-27,1.01, 2.74, 21.63, 2.11, 1.63, 7.39, repro,
2007-03-28,1.09, -0.02, 7.24, 2.05, 1.59, 7.14, repro,
2007-03-29,1.71, 0.57, 6.25, 1.99, 1.58, 7.03, repro,
2007-03-30,0.71, 1.98, -2.40, 2.00, 1.57, 7.02, repro,
2007-03-31,1.97, 0.90, -0.03, 1.99, 1.57, 6.98, repro,
2007-04-01,2.28, 2.11, 11.28, 2.00, 1.57, 6.96, repro,
2007-04-02,1.85, 1.13, 8.58, 1.98, 1.57, 6.95, repro,
2007-04-03,2.09, 1.28, -3.38, 2.06, 1.66, 7.43, repro,
2007-04-04,1.10, 1.30, -1.10, 2.05, 1.62, 7.29, repro,
2007-04-05,0.66, 2.31, 0.27, 2.08, 1.64, 7.38, repro,
2007-04-06,1.68, 1.73, -4.14, 2.11, 1.67, 7.44, repro,
2007-04-07,1.88, 0.88, 5.57, 2.04, 1.60, 7.11, repro,
2007-04-08,0.24, 1.10, 0.20, 1.99, 1.58, 7.01, repro,
2007-04-09,2.35, 1.46, 5.94, 1.99, 1.56, 6.96, repro,
2007-04-10,0.66, 2.65, 10.71, 2.03, 1.63, 7.20, repro,
2007-04-11,0.65, 1.67, 3.25, 2.01, 1.58, 7.06, repro,
2007-04-12,1.36, 1.12, 9.34, 1.99, 1.56, 6.90, repro,
2007-04-13,1.51, 0.91, 5.29, 2.01, 1.57, 7.02, repro,
2007-04-14,0.61, 1.63, 2.68, 2.03, 1.59, 7.10, repro,
2007-04-15,1.40, 1.25, 8.39, 2.01, 1.57, 7.06, repro,
2007-04-16,0.15, 1.51, 4.16, 2.02, 1.58, 7.11, repro,
2007-04-17,0.13, 1.92, 1.85, 2.00, 1.57, 6.98, repro,
2007-04-18,1.51, 1.39, 8.43, 2.00, 1.58, 7.01, repro,
2007-04-19,1.20, 1.87, 3.56, 2.01, 1.58, 7.08, repro,
2007-04-20,0.75, 1.33, 7.20, 2.01, 1.58, 7.09, repro,
2007-04-21,1.22, 2.31, 8.38, 2.03, 1.59, 7.16, repro,
2007-04-22,1.50, 1.63, 2.29, 2.01, 1.57, 7.03, repro,
2007-04-23,0.69, 0.89, 5.11, 2.02, 1.61, 7.09, repro,
2007-04-24,-0.58, 1.05, -3.85, 2.07, 1.62, 7.24, repro,
2007-04-25,0.63, 1.71, 1.56, 2.02, 1.61, 7.08, repro,
2007-04-26,0.81, 2.25, 0.42, 2.03, 1.58, 7.09, repro,
2007-04-27,1.81, 1.57, 1.19, 2.03, 1.58, 7.09, repro,
2007-04-28,0.94, 2.49, 2.58, 2.01, 1.56, 6.99, repro,
2007-04-29,-0.44, 1.86, -1.07, 2.01, 1.56, 7.00, repro,
2007-04-30,1.56, 1.98, 1.83, 2.01, 1.57, 7.04, repro,
2007-05-01,-0.04, 1.78, -0.45, 2.02, 1.56, 7.03, repro,
2007-05-02,-0.51, 3.10, 5.17, 2.10, 1.61, 7.31, repro,
2007-05-03,1.01, 0.62, 12.19, 2.10, 1.59, 7.28, repro,
2007-05-04,0.17, 1.96, 5.80, 2.01, 1.55, 6.98, repro,
2007-05-05,2.53, 0.31, 3.98, 2.05, 1.60, 7.13, repro,
2007-05-06,1.35, 1.52, 3.46, 2.01, 1.56, 7.00, repro,
2007-05-07,0.16, 0.99, -0.08, 2.03, 1.58, 7.11, repro,
2007-05-08,1.58, 1.56, -3.74, 2.01, 1.55, 6.96, repro,
2007-05-09,0.97, 1.73, 2.63, 2.03, 1.56, 7.02, repro,
2007-05-10,0.49, 1.02, -0.52, 2.13, 1.63, 7.41, repro,
2007-05-11,1.03, 2.25, 4.69, 2.11, 1.63, 7.37, repro,
2007-05-12,0.45, 2.64, 8.70, 2.02, 1.56, 7.04, repro,
2007-05-13,-1.42, 1.31, 4.67, 2.10, 1.60, 7.26, repro,
2007-05-14,1.51, 1.41, 3.02, 2.06, 1.60, 7.17, repro,
2007-05-15,1.29, 1.67, 2.24, 2.04, 1.57, 7.06, repro,
2007-05-16,1.40, 2.38, 0.04, 2.02, 1.56, 6.97, repro,
2007-05-17,0.87, 1.15, 3.41, 2.05, 1.62, 7.17, repro,
2007-05-18,0.21, 2.05, 1.96, 2.11, 1.66, 7.35, repro,
2007-05-19,-0.47, 1.78, 1.80, 2.08, 1.61, 7.18, repro,
2007-05-20,0.01, 2.57, 5.00, 2.08, 1.60, 7.16, repro,
2007-05-21,-0.04, 1.47, 1.00, 2.05, 1.60, 7.10, repro,
2007-05-22,1.37, 1.20, 5.20, 2.05, 1.61, 7.10, repro,
2007-05-23,0.16, 1.53, 0.71, 2.05, 1.59, 7.05, repro,
2007-05-24,0.36, 0.64, 1.02, 2.09, 1.63, 7.21, repro,
2007-05-25,1.03, 1.34, 4.64, 2.04, 1.59, 7.05, repro,
2007-05-26,0.51, 1.33, -0.38, 2.07, 1.61, 7.18, repro,
2007-05-27,-0.67, 1.35, 6.70, 2.04, 1.58, 7.02, repro,
2007-05-28,0.62, 2.31, 9.59, 2.04, 1.57, 6.96, repro,
2007-05-29,0.59, 1.66, 2.25, 2.04, 1.56, 6.92, repro,
2007-05-30,0.83, 0.96, 1.68, 2.08, 1.58, 7.01, repro,
2007-05-31,0.97, 1.72, 0.78, 2.08, 1.61, 7.14, repro,
2007-06-01,0.69, 0.77, 3.09, 2.04, 1.58, 7.03, repro,
2007-06-02,0.22, 1.86, 3.73, 2.02, 1.59, 7.04, repro,
2007-06-03,0.72, 0.82, 4.21, 2.02, 1.58, 7.02, repro,
2007-06-04,0.22, 1.67, 9.97, 2.02, 1.57, 6.97, repro,
2007-06-05,1.19, 1.70, 6.81, 2.05, 1.57, 7.03, repro,
2007-06-06,0.34, 0.89, 16.04, 2.03, 1.58, 7.03, repro,
2007-06-07,1.21, 0.87, 12.28, 2.01, 1.59, 7.02, repro,
2007-06-08,0.25, 2.01, 1.30, 2.03, 1.57, 7.00, repro,
2007-06-09,1.05, 1.61, 1.57, 2.03, 1.61, 7.12, repro,
2007-06-10,0.25, 0.90, 1.76, 2.00, 1.56, 6.93, repro,
2007-06-11,1.18, 1.96, 8.13, 2.07, 1.65, 7.22, repro,
2007-06-12,-0.64, 1.94, 4.07, 2.03, 1.62, 7.15, repro,
2007-06-13,0.16, 0.42, -1.90, 2.06, 1.64, 7.18, repro,
2007-06-14,-0.41, 2.04, -5.50, 2.06, 1.63, 7.17, repro,
2007-06-15,-0.11, 2.76, 8.34, 2.00, 1.58, 7.03, repro,
2007-06-16,-1.63, 2.61, 8.68, 2.01, 1.58, 7.02, repro,
2007-06-17,2.03, 6.15, 8.27, 2.02, 1.58, 7.01, repro,
2007-06-18,0.08, 1.82, 4.05, 2.00, 1.58, 7.00, repro,
2007-06-19,-0.19, 2.75, 0.25, 2.01, 1.58, 7.01, repro,
2007-06-20,0.65, 1.81, -5.27, 2.01, 1.59, 7.04, repro,
2007-06-21,-0.55, 2.01, 1.27, 2.00, 1.58, 6.99, repro,
2007-06-22,0.34, 2.68, -2.39, 2.01, 1.58, 6.98, repro,
2007-06-23,-1.19, 2.20, 4.94, 2.01, 1.57, 6.94, repro,
2007-06-24,0.56, 1.22, -0.04, 2.04, 1.63, 7.24, repro,
2007-06-25,-1.27, 1.14, 5.74, 2.01, 1.57, 7.00, repro,
2007-06-26,0.01, 2.47, -3.77, 2.02, 1.58, 7.05, repro,
2007-06-27,0.41, 2.18, 0.04, 2.02, 1.58, 7.04, repro,
2007-06-28,-0.88, 2.72, -0.57, 2.02, 1.59, 7.06, repro,
2007-06-29,-1.19, 2.78, 6.76, 2.02, 1.57, 7.00, repro,
2007-06-30,-1.00, 2.58, 2.96, 2.02, 1.57, 7.02, repro,
2007-07-01,-0.10, 2.35, 6.81, 2.01, 1.58, 7.02, repro,
2007-07-02,-0.35, 1.56, 0.66, 2.01, 1.57, 7.01, repro,
2007-07-03,0.09, 2.15, 3.18, 2.01, 1.58, 7.04, repro,
2007-07-04,0.27, 2.17, 2.21, 2.04, 1.60, 7.11, repro,
2007-07-05,-0.10, 3.18, -0.59, 2.03, 1.58, 7.05, repro,
2007-07-06,0.21, 1.96, 2.59, 2.01, 1.58, 7.05, repro,
2007-07-07,-1.71, 3.13, 6.68, 2.01, 1.59, 7.06, repro,
2007-07-08,0.74, 0.64, 11.98, 2.02, 1.60, 7.08, repro,
2007-07-09,-0.12, 2.29, 5.62, 2.04, 1.60, 7.14, repro,
2007-07-10,-0.30, 3.19, 0.31, 2.04, 1.60, 7.10, repro,
2007-07-11,-0.94, 2.00, 7.59, 2.01, 1.58, 6.98, repro,
2007-07-12,-1.67, 4.95, 2.16, 2.06, 1.64, 7.20, repro,
2007-07-13,0.90, 1.68, 1.04, 2.02, 1.58, 7.01, repro,